Satellite: PHARMSAT
Catalog number: 35002
Epoch time:      10229.30945813
Element set:    0348
Inclination:      040.4682 deg
RA of node:       204.6113 deg
Eccentricity:    0.0022769
Arg of perigee:   105.5480 deg
Mean anomaly:     254.7852 deg
Mean motion:   15.42814715 rev/day
Decay rate:      5.349e-05 rev/day^2
Epoch rev:           07009
Checksum:              278

Satellite: HAWKSAT1
Catalog number: 35003
Epoch time:      10229.27978367
Element set:    0367
Inclination:      040.4576 deg
RA of node:       197.6807 deg
Eccentricity:    0.0020616
Arg of perigee:   123.9326 deg
Mean anomaly:     236.3453 deg
Mean motion:   15.46476495 rev/day
Decay rate:     1.2117e-04 rev/day^2
Epoch rev:           07017
Checksum:              307

Satellite: CP6
Catalog number: 35004
Epoch time:      10229.95007333
Element set:    0372
Inclination:      040.4579 deg
RA of node:       192.1794 deg
Eccentricity:    0.0019585
Arg of perigee:   133.7143 deg
Mean anomaly:     226.5363 deg
Mean motion:   15.47540830 rev/day
Decay rate:     1.4672e-04 rev/day^2
Epoch rev:           07028
Checksum:              294

Satellite: AEROCUB3
Catalog number: 35005
Epoch time:      10229.94384004
Element set:    0413
Inclination:      040.4681 deg
RA of node:       186.2070 deg
Eccentricity:    0.0018201
Arg of perigee:   159.7530 deg
Mean anomaly:     200.4096 deg
Mean motion:   15.55530400 rev/day
Decay rate:     4.9528e-04 rev/day^2
Epoch rev:           07035
Checksum:              258

Satellite: CASTOR
Catalog number: 35694
Epoch time:      10230.44082147
Element set:     655
Inclination:      051.5930 deg
RA of node:       222.0149 deg
Eccentricity:    0.0004218
Arg of perigee:   308.0851 deg
Mean anomaly:     053.0105 deg
Mean motion:   16.48877011 rev/day
Decay rate:   7.179566e-02 rev/day^2
Epoch rev:            6110
Checksum:              273

Satellite: METEOR-M
Catalog number: 35865
Epoch time:      10230.76503089
Element set:     571
Inclination:      098.7533 deg
RA of node:       284.1001 deg
Eccentricity:    0.0002036
Arg of perigee:   165.2857 deg
Mean anomaly:     194.8318 deg
Mean motion:   14.21831251 rev/day
Decay rate:       1.76e-06 rev/day^2
Epoch rev:            4761
Checksum:              284

Satellite: RS-38
Catalog number: 35869
Epoch time:      10230.80009872
Element set:     584
Inclination:      098.7513 deg
RA of node:       284.1711 deg
Eccentricity:    0.0004375
Arg of perigee:   175.0470 deg
Mean anomaly:     185.0716 deg
Mean motion:   14.21986965 rev/day
Decay rate:       1.77e-06 rev/day^2
Epoch rev:            4762
Checksum:              322

/EX


_______________________________________________
Via the Keps mailing list courtesy of AMSAT-NA
http://amsat.org/mailman/listinfo/keps

--- ViaMAIL!/WC v1.60d
 * Origin: Chowdanet (401-724-4410) telnet://chowdanet.com  (1:323/120)